Time,TemperatureF,DewpointF,PressureIn,WindDirection,WindDirectionDegrees,WindSpeedMPH,WindSpeedGustMPH,Humidity,HourlyPrecipIn,Conditions,Clouds,dailyrainin,SoftwareType,DateUTC
2013-05-24 00:01:00,75.0,50.0,30.04,South,180,7.0,14.0,41,0.00,,,0.00,,2013-05-24 06:01:00,
2013-05-24 00:12:00,75.0,50.0,30.04,South,180,7.0,14.0,41,0.00,,,0.00,,2013-05-24 06:12:00,
2013-05-24 00:21:00,74.0,49.0,30.04,South,180,5.0,12.0,42,0.00,,,0.00,,2013-05-24 06:21:00,
2013-05-24 00:32:00,74.0,50.0,30.04,SW,214,4.0,12.0,43,0.00,,,0.00,,2013-05-24 06:32:00,
2013-05-24 00:41:00,74.0,50.0,30.04,SW,214,4.0,12.0,43,0.00,,,0.00,,2013-05-24 06:41:00,
2013-05-24 00:52:00,73.0,50.0,30.05,SW,215,4.0,9.0,45,0.00,,,0.00,,2013-05-24 06:52:00,
2013-05-24 01:01:00,72.0,51.0,30.05,SSW,203,2.0,6.0,47,0.00,,,0.00,,2013-05-24 07:01:00,
2013-05-24 01:11:00,72.0,51.0,30.05,SSW,203,2.0,6.0,47,0.00,,,0.00,,2013-05-24 07:11:00,
2013-05-24 01:22:00,71.0,51.0,30.05,SSW,211,3.0,5.0,49,0.00,,,0.00,,2013-05-24 07:22:00,
2013-05-24 01:31:00,70.0,50.0,30.05,SSE,153,7.0,11.0,49,0.00,,,0.00,,2013-05-24 07:31:00,
2013-05-24 01:42:00,70.0,50.0,30.05,SSE,153,7.0,11.0,49,0.00,,,0.00,,2013-05-24 07:42:00,
2013-05-24 01:52:00,71.0,50.0,30.06,WSW,242,4.0,11.0,47,0.00,,,0.00,,2013-05-24 07:52:00,
2013-05-24 02:02:00,71.0,50.0,30.06,SSW,198,4.0,11.0,47,0.00,,,0.00,,2013-05-24 08:02:00,
2013-05-24 02:11:00,71.0,50.0,30.06,SSW,198,4.0,11.0,47,0.00,,,0.00,,2013-05-24 08:11:00,
2013-05-24 02:22:00,70.0,49.0,30.06,SSW,205,6.0,9.0,48,0.00,,,0.00,,2013-05-24 08:22:00,
2013-05-24 02:32:00,70.0,50.0,30.05,SW,235,5.0,8.0,49,0.00,,,0.00,,2013-05-24 08:32:00,
2013-05-24 02:42:00,70.0,50.0,30.05,SW,235,5.0,8.0,49,0.00,,,0.00,,2013-05-24 08:42:00,
2013-05-24 02:52:00,69.0,50.0,30.05,WSW,249,2.0,7.0,51,0.00,,,0.00,,2013-05-24 08:52:00,
2013-05-24 03:01:00,68.0,50.0,30.06,SSE,159,0.0,5.0,52,0.00,,,0.00,,2013-05-24 09:01:00,
2013-05-24 03:11:00,68.0,50.0,30.06,SSE,159,0.0,5.0,52,0.00,,,0.00,,2013-05-24 09:11:00,
2013-05-24 03:21:00,67.0,50.0,30.06,SSW,194,1.0,3.0,54,0.00,,,0.00,,2013-05-24 09:21:00,
2013-05-24 03:32:00,67.0,50.0,30.06,North,0,0.0,5.0,55,0.00,,,0.00,,2013-05-24 09:32:00,
2013-05-24 03:42:00,67.0,50.0,30.06,North,0,0.0,5.0,55,0.00,,,0.00,,2013-05-24 09:42:00,
2013-05-24 03:53:00,66.0,51.0,30.06,WSW,249,1.0,4.0,59,0.00,,,0.00,,2013-05-24 09:53:00,
2013-05-24 04:02:00,65.0,53.0,30.06,WNW,287,3.0,4.0,64,0.00,,,0.00,,2013-05-24 10:02:00,
2013-05-24 04:12:00,65.0,53.0,30.06,WNW,287,3.0,4.0,64,0.00,,,0.00,,2013-05-24 10:12:00,
2013-05-24 04:22:00,64.0,51.0,30.07,WSW,257,2.0,5.0,63,0.00,,,0.00,,2013-05-24 10:22:00,
2013-05-24 04:32:00,64.0,51.0,30.07,West,262,0.0,3.0,62,0.00,,,0.00,,2013-05-24 10:32:00,
2013-05-24 04:42:00,64.0,51.0,30.07,West,262,0.0,3.0,62,0.00,,,0.00,,2013-05-24 10:42:00,
2013-05-24 04:52:00,64.0,52.0,30.08,West,262,0.0,0.0,64,0.00,,,0.00,,2013-05-24 10:52:00,
2013-05-24 05:02:00,62.0,50.0,30.08,West,262,0.0,0.0,64,0.00,,,0.00,,2013-05-24 11:02:00,
2013-05-24 05:12:00,62.0,50.0,30.08,West,262,0.0,0.0,64,0.00,,,0.00,,2013-05-24 11:12:00,
2013-05-24 05:22:00,61.0,50.0,30.09,West,262,0.0,0.0,67,0.00,,,0.00,,2013-05-24 11:22:00,
2013-05-24 05:32:00,61.0,51.0,30.09,West,262,0.0,0.0,69,0.00,,,0.00,,2013-05-24 11:32:00,
2013-05-24 05:42:00,61.0,51.0,30.09,West,262,0.0,0.0,69,0.00,,,0.00,,2013-05-24 11:42:00,
2013-05-24 05:51:00,61.0,51.0,30.09,West,262,0.0,0.0,70,0.00,,,0.00,,2013-05-24 11:51:00,
2013-05-24 06:02:00,60.0,51.0,30.09,West,262,0.0,0.0,71,0.00,,,0.00,,2013-05-24 12:02:00,
2013-05-24 06:11:00,60.0,51.0,30.09,West,262,0.0,0.0,71,0.00,,,0.00,,2013-05-24 12:11:00,
2013-05-24 06:21:00,60.0,51.0,30.09,West,262,0.0,0.0,72,0.00,,,0.00,,2013-05-24 12:21:00,
2013-05-24 06:32:00,59.0,50.0,30.10,West,262,0.0,0.0,73,0.00,,,0.00,,2013-05-24 12:32:00,
2013-05-24 06:42:00,59.0,50.0,30.10,West,262,0.0,0.0,73,0.00,,,0.00,,2013-05-24 12:42:00,
2013-05-24 06:52:00,60.0,51.0,30.11,West,262,0.0,0.0,72,0.00,,,0.00,,2013-05-24 12:52:00,
2013-05-24 07:02:00,61.0,51.0,30.11,West,262,0.0,0.0,70,0.00,,,0.00,,2013-05-24 13:02:00,
2013-05-24 07:11:00,61.0,51.0,30.11,West,262,0.0,0.0,70,0.00,,,0.00,,2013-05-24 13:11:00,
2013-05-24 07:21:00,62.0,52.0,30.12,SSW,203,2.0,6.0,71,0.00,,,0.00,,2013-05-24 13:21:00,
2013-05-24 07:32:00,64.0,53.0,30.12,SW,228,1.0,4.0,67,0.00,,,0.00,,2013-05-24 13:32:00,
2013-05-24 07:41:00,64.0,53.0,30.12,SW,228,1.0,4.0,67,0.00,,,0.00,,2013-05-24 13:41:00,
2013-05-24 07:52:00,65.0,53.0,30.12,WNW,290,2.0,4.0,66,0.00,,,0.00,,2013-05-24 13:52:00,
2013-05-24 08:01:00,65.0,53.0,30.12,SW,232,2.0,4.0,65,0.00,,,0.00,,2013-05-24 14:01:00,
2013-05-24 08:11:00,65.0,53.0,30.12,SW,232,2.0,4.0,65,0.00,,,0.00,,2013-05-24 14:11:00,
2013-05-24 08:21:00,66.0,53.0,30.12,WSW,252,1.0,3.0,63,0.00,,,0.00,,2013-05-24 14:21:00,
2013-05-24 08:31:00,69.0,53.0,30.13,SW,224,3.0,5.0,56,0.00,,,0.00,,2013-05-24 14:31:00,
2013-05-24 08:42:00,69.0,53.0,30.13,SW,224,3.0,5.0,56,0.00,,,0.00,,2013-05-24 14:42:00,
2013-05-24 08:52:00,72.0,53.0,30.13,WSW,255,2.0,6.0,52,0.00,,,0.00,,2013-05-24 14:52:00,
2013-05-24 09:02:00,74.0,54.0,30.14,SSW,212,5.0,7.0,50,0.00,,,0.00,,2013-05-24 15:02:00,
2013-05-24 09:11:00,74.0,54.0,30.14,SSW,212,5.0,7.0,50,0.00,,,0.00,,2013-05-24 15:11:00,
2013-05-24 09:21:00,75.0,54.0,30.14,SSW,207,8.0,10.0,48,0.00,,,0.00,,2013-05-24 15:21:00,
2013-05-24 09:32:00,77.0,50.0,30.14,SSW,212,6.0,13.0,39,0.00,,,0.00,,2013-05-24 15:32:00,
2013-05-24 09:43:00,77.0,50.0,30.14,SSW,212,6.0,13.0,39,0.00,,,0.00,,2013-05-24 15:43:00,
2013-05-24 09:52:00,78.0,50.0,30.14,South,177,9.0,12.0,37,0.00,,,0.00,,2013-05-24 15:52:00,
2013-05-24 10:03:00,78.0,48.0,30.14,SSE,165,8.0,14.0,35,0.00,,,0.00,,2013-05-24 16:03:00,
2013-05-24 10:12:00,78.0,48.0,30.14,SSE,165,8.0,14.0,35,0.00,,,0.00,,2013-05-24 16:12:00,
2013-05-24 10:22:00,79.0,50.0,30.14,SSW,194,7.0,10.0,36,0.00,,,0.00,,2013-05-24 16:22:00,
2013-05-24 10:32:00,81.0,47.0,30.14,SW,225,5.0,9.0,31,0.00,,,0.00,,2013-05-24 16:32:00,
2013-05-24 10:42:00,81.0,47.0,30.14,SW,225,5.0,9.0,31,0.00,,,0.00,,2013-05-24 16:42:00,
2013-05-24 10:52:00,82.0,44.0,30.13,SSW,198,4.0,9.0,26,0.00,,,0.00,,2013-05-24 16:52:00,
2013-05-24 11:02:00,81.0,41.0,30.13,ESE,114,3.0,7.0,24,0.00,,,0.00,,2013-05-24 17:02:00,
2013-05-24 11:12:00,81.0,41.0,30.13,ESE,114,3.0,7.0,24,0.00,,,0.00,,2013-05-24 17:12:00,
2013-05-24 11:22:00,83.0,41.0,30.12,WNW,290,3.0,8.0,23,0.00,,,0.00,,2013-05-24 17:22:00,
2013-05-24 11:32:00,84.0,41.0,30.12,ESE,103,4.0,8.0,22,0.00,,,0.00,,2013-05-24 17:32:00,
2013-05-24 11:41:00,84.0,41.0,30.12,ESE,103,4.0,8.0,22,0.00,,,0.00,,2013-05-24 17:41:00,
2013-05-24 11:52:00,84.0,40.0,30.11,ESE,117,6.0,9.0,21,0.00,,,0.00,,2013-05-24 17:52:00,
2013-05-24 12:01:00,84.0,41.0,30.11,SW,235,1.0,9.0,22,0.00,,,0.00,,2013-05-24 18:01:00,
2013-05-24 12:11:00,84.0,41.0,30.11,SW,235,1.0,9.0,22,0.00,,,0.00,,2013-05-24 18:11:00,
2013-05-24 12:21:00,86.0,39.0,30.11,South,183,0.0,7.0,19,0.00,,,0.00,,2013-05-24 18:21:00,
2013-05-24 12:32:00,87.0,38.0,30.10,SW,219,1.0,10.0,18,0.00,,,0.00,,2013-05-24 18:32:00,
2013-05-24 12:41:00,87.0,38.0,30.10,SW,219,1.0,10.0,18,0.00,,,0.00,,2013-05-24 18:41:00,
2013-05-24 12:52:00,87.0,38.0,30.10,SSE,167,2.0,8.0,18,0.00,,,0.00,,2013-05-24 18:52:00,
2013-05-24 13:01:00,87.0,38.0,30.09,SW,226,3.0,10.0,18,0.00,,,0.00,,2013-05-24 19:01:00,
2013-05-24 13:11:00,87.0,38.0,30.09,SW,226,3.0,10.0,18,0.00,,,0.00,,2013-05-24 19:11:00,
2013-05-24 13:21:00,89.0,37.0,30.09,SSE,149,6.0,8.0,16,0.00,,,0.00,,2013-05-24 19:21:00,
2013-05-24 13:32:00,88.0,35.0,30.08,West,263,3.0,12.0,15,0.00,,,0.00,,2013-05-24 19:32:00,
2013-05-24 13:41:00,88.0,35.0,30.08,West,263,3.0,12.0,15,0.00,,,0.00,,2013-05-24 19:41:00,
2013-05-24 13:52:00,89.0,32.0,30.07,ESE,110,3.0,8.0,13,0.00,,,0.00,,2013-05-24 19:52:00,
2013-05-24 14:02:00,89.0,32.0,30.07,SSW,201,5.0,11.0,13,0.00,,,0.00,,2013-05-24 20:02:00,
2013-05-24 14:11:00,89.0,32.0,30.07,SSW,201,5.0,11.0,13,0.00,,,0.00,,2013-05-24 20:11:00,
2013-05-24 14:21:00,90.0,31.0,30.06,SE,131,5.0,11.0,12,0.00,,,0.00,,2013-05-24 20:21:00,
2013-05-24 14:32:00,91.0,29.0,30.06,SW,221,5.0,11.0,11,0.00,,,0.00,,2013-05-24 20:32:00,
2013-05-24 14:41:00,91.0,29.0,30.06,SW,221,5.0,11.0,11,0.00,,,0.00,,2013-05-24 20:41:00,
2013-05-24 14:52:00,90.0,28.0,30.05,SSW,211,5.0,10.0,11,0.00,,,0.00,,2013-05-24 20:52:00,
2013-05-24 15:01:00,91.0,27.0,30.05,SE,124,4.0,8.0,10,0.00,,,0.00,,2013-05-24 21:01:00,
2013-05-24 15:11:00,91.0,27.0,30.05,SE,124,4.0,8.0,10,0.00,,,0.00,,2013-05-24 21:11:00,
2013-05-24 15:21:00,92.0,30.0,30.04,SSW,208,6.0,9.0,11,0.00,,,0.00,,2013-05-24 21:21:00,
2013-05-24 15:32:00,93.0,28.0,30.03,SW,226,3.0,10.0,10,0.00,,,0.00,,2013-05-24 21:32:00,
2013-05-24 15:42:00,93.0,28.0,30.03,SW,226,3.0,10.0,10,0.00,,,0.00,,2013-05-24 21:42:00,
2013-05-24 15:53:00,93.0,28.0,30.03,SW,217,6.0,11.0,10,0.00,,,0.00,,2013-05-24 21:53:00,
2013-05-24 16:02:00,93.0,26.0,30.02,SSW,197,7.0,11.0,9,0.00,,,0.00,,2013-05-24 22:02:00,
2013-05-24 16:12:00,93.0,26.0,30.02,SSW,197,7.0,11.0,9,0.00,,,0.00,,2013-05-24 22:12:00,
2013-05-24 16:22:00,93.0,28.0,30.01,East,93,3.0,6.0,10,0.00,,,0.00,,2013-05-24 22:22:00,
2013-05-24 16:33:00,93.0,28.0,30.01,WSW,248,7.0,12.0,10,0.00,,,0.00,,2013-05-24 22:33:00,
2013-05-24 16:42:00,93.0,28.0,30.01,WSW,248,7.0,12.0,10,0.00,,,0.00,,2013-05-24 22:42:00,
2013-05-24 16:52:00,93.0,28.0,30.00,WSW,246,1.0,11.0,10,0.00,,,0.00,,2013-05-24 22:52:00,
2013-05-24 17:02:00,94.0,24.0,30.00,West,280,4.0,13.0,8,0.00,,,0.00,,2013-05-24 23:02:00,
2013-05-24 17:11:00,94.0,24.0,30.00,West,280,4.0,13.0,8,0.00,,,0.00,,2013-05-24 23:11:00,
2013-05-24 17:22:00,94.0,24.0,29.99,SW,233,2.0,13.0,8,0.00,,,0.00,,2013-05-24 23:22:00,
2013-05-24 17:32:00,94.0,24.0,29.98,WSW,250,1.0,12.0,8,0.00,,,0.00,,2013-05-24 23:32:00,
2013-05-24 17:42:00,94.0,24.0,29.98,WSW,250,1.0,12.0,8,0.00,,,0.00,,2013-05-24 23:42:00,
2013-05-24 17:52:00,93.0,23.0,29.98,SW,233,5.0,12.0,8,0.00,,,0.00,,2013-05-24 23:52:00,
2013-05-24 18:01:00,93.0,23.0,29.98,SSW,203,1.0,10.0,8,0.00,,,0.00,,2013-05-25 00:01:00,
2013-05-24 18:11:00,93.0,23.0,29.98,SSW,203,1.0,10.0,8,0.00,,,0.00,,2013-05-25 00:11:00,
2013-05-24 18:21:00,93.0,23.0,29.98,SW,214,6.0,11.0,8,0.00,,,0.00,,2013-05-25 00:21:00,
2013-05-24 18:32:00,93.0,20.0,29.97,West,273,5.0,9.0,7,0.00,,,0.00,,2013-05-25 00:32:00,
2013-05-24 18:41:00,93.0,20.0,29.97,West,273,5.0,9.0,7,0.00,,,0.00,,2013-05-25 00:41:00,
2013-05-24 18:52:00,92.0,19.0,29.96,West,270,6.0,9.0,7,0.00,,,0.00,,2013-05-25 00:52:00,
2013-05-24 19:01:00,92.0,19.0,29.96,West,263,4.0,11.0,7,0.00,,,0.00,,2013-05-25 01:01:00,
2013-05-24 19:11:00,92.0,19.0,29.96,West,263,4.0,11.0,7,0.00,,,0.00,,2013-05-25 01:11:00,
2013-05-24 19:22:00,91.0,22.0,29.96,West,262,6.0,9.0,8,0.00,,,0.00,,2013-05-25 01:22:00,
2013-05-24 19:32:00,91.0,18.0,29.97,West,262,2.0,7.0,7,0.00,,,0.00,,2013-05-25 01:32:00,
2013-05-24 19:41:00,91.0,18.0,29.97,West,262,2.0,7.0,7,0.00,,,0.00,,2013-05-25 01:41:00,
2013-05-24 19:52:00,90.0,21.0,29.98,West,259,3.0,7.0,8,0.00,,,0.00,,2013-05-25 01:52:00,
2013-05-24 20:01:00,89.0,20.0,29.98,West,264,0.0,5.0,8,0.00,,,0.00,,2013-05-25 02:01:00,
2013-05-24 20:11:00,89.0,20.0,29.98,West,264,0.0,5.0,8,0.00,,,0.00,,2013-05-25 02:11:00,
2013-05-24 20:21:00,87.0,21.0,29.98,SW,236,0.0,1.0,9,0.00,,,0.00,,2013-05-25 02:21:00,
2013-05-24 20:31:00,86.0,23.0,29.98,SSW,204,0.0,1.0,10,0.00,,,0.00,,2013-05-25 02:31:00,
2013-05-24 20:42:00,86.0,23.0,29.98,SSW,204,0.0,1.0,10,0.00,,,0.00,,2013-05-25 02:42:00,
2013-05-24 20:52:00,85.0,25.0,29.99,SSW,204,0.0,0.0,11,0.00,,,0.00,,2013-05-25 02:52:00,
2013-05-24 21:01:00,82.0,28.0,30.00,SSW,211,2.0,3.0,14,0.00,,,0.00,,2013-05-25 03:01:00,
2013-05-24 21:11:00,82.0,28.0,30.00,SSW,211,2.0,3.0,14,0.00,,,0.00,,2013-05-25 03:11:00,
2013-05-24 21:21:00,82.0,28.0,30.00,SSE,162,0.0,1.0,14,0.00,,,0.00,,2013-05-25 03:21:00,
2013-05-24 21:32:00,81.0,31.0,30.00,SSE,163,0.0,1.0,16,0.00,,,0.00,,2013-05-25 03:32:00,
2013-05-24 21:43:00,81.0,31.0,30.00,SSE,163,0.0,1.0,16,0.00,,,0.00,,2013-05-25 03:43:00,
2013-05-24 21:53:00,79.0,32.0,30.00,South,181,0.0,3.0,18,0.00,,,0.00,,2013-05-25 03:53:00,
2013-05-24 22:02:00,78.0,34.0,30.01,SE,145,0.0,4.0,20,0.00,,,0.00,,2013-05-25 04:02:00,
2013-05-24 22:12:00,78.0,34.0,30.01,SE,145,0.0,4.0,20,0.00,,,0.00,,2013-05-25 04:12:00,
2013-05-24 22:23:00,77.0,33.0,30.01,SSE,162,2.0,7.0,20,0.00,,,0.00,,2013-05-25 04:23:00,
2013-05-24 22:33:00,77.0,38.0,30.02,SW,222,3.0,7.0,25,0.00,,,0.00,,2013-05-25 04:33:00,
2013-05-24 22:43:00,77.0,38.0,30.02,SW,222,3.0,7.0,25,0.00,,,0.00,,2013-05-25 04:43:00,
2013-05-24 22:53:00,77.0,42.0,30.02,South,169,5.0,7.0,29,0.00,,,0.00,,2013-05-25 04:53:00,
2013-05-24 23:02:00,77.0,42.0,30.03,ESE,120,2.0,4.0,29,0.00,,,0.00,,2013-05-25 05:02:00,
2013-05-24 23:12:00,77.0,42.0,30.03,ESE,120,2.0,4.0,29,0.00,,,0.00,,2013-05-25 05:12:00,
2013-05-24 23:22:00,75.0,41.0,30.05,NW,316,2.0,11.0,29,0.00,,,0.00,,2013-05-25 05:22:00,
2013-05-24 23:32:00,74.0,40.0,30.05,WSW,249,0.0,4.0,29,0.00,,,0.00,,2013-05-25 05:32:00,
2013-05-24 23:42:00,74.0,40.0,30.05,WSW,249,0.0,4.0,29,0.00,,,0.00,,2013-05-25 05:42:00,
2013-05-24 23:52:00,75.0,41.0,30.05,SW,228,0.0,1.0,29,0.00,,,0.00,,2013-05-25 05:52:00,